Regional Weather Roundup
Issued by NWS Charleston, SC

Current Version | Previous Version | Text Only | Print | Product List | Glossary Off
Versions: 1 2 3 4 5 6 7 8 9 10 11 12 13 14 15 16 17 18 19 20 21 22 23 24 25 26 27 28 29 30 31 32 33 34 35 36 37 38 39 40 41 42 43 44 45 46 47 48 49 50
000 ASUS42 KCHS 211510 RWRCHS REGIONAL WEATHER ROUNDUP NATIONAL WEATHER SERVICE CHARLESTON SC 1100 AM EDT TUE OCT 21 2014 NOTE: "FAIR" INDICATES FEW OR NO CLOUDS BELOW 12,000 FEET WITH NO SIGNIFICANT WEATHER AND/OR OBSTRUCTIONS TO VISIBILITY. NOT ALL STATIONS ARE QUALITY CONTROLLED BY THE NATIONAL WEATHER SERVICE. USE DATA WITH CAUTION...ESPECIALLY DEWPOINT OBSERVATIONS. SCZ027-030-031-034>040-042>050-211600- ...SOUTH CAROLINA... CITY SKY/WX TMP DP RH WIND PRES REMARKS N CHARLESTON SUNNY 75 54 47 NW10 29.97S WATERFRONT PRK N/A 73 N/A N/A NW6G12 N/A FORT JOHNSON NOT AVBL JOHNS ISLAND SUNNY 75 59 57 CALM 29.97F PINOPOLIS N/A 70 57 64 W6 29.90R MONCKS CORNER FAIR 73 61 64 N5 29.96F SUMMERVILLE NOT AVBL BEAUFORT MCAS SUNNY 73 56 54 W7 29.98F BEAUFORT ARPT FAIR 72 59 64 NW6 29.98S HAZE HILTON HEAD IS SUNNY 73 57 56 N6 29.99F GEORGETOWN NOT AVBL WALTERBORO SUNNY 73 50 43 NW6 29.98F ORANGEBURG SUNNY 69 53 56 NW6 29.98F BARNWELL FAIR 72 54 53 NW6 29.99F AIKEN FAIR 70 55 60 W3 30.01F MANNING FAIR 72 50 46 CALM 29.97S KINGSTREE NOT AVBL COLUMBIA SUNNY 70 51 51 NW6 29.97F SUMTER SUNNY 67 54 61 NW8 29.95F FLORENCE SUNNY 70 53 54 NW9 29.95F MYRTLE BEACH SUNNY 72 54 53 NW9 29.95F N MYRTLE BEACH SUNNY 72 54 53 NW6 29.94F $$ GAZ063-065-086>088-099>101-113>116-118-119-134-136>141-150-211600- ...GEORGIA... CITY SKY/WX TMP DP RH WIND PRES REMARKS SAVANNAH ARPT SUNNY 74 55 51 N6 30.00S HUNTER AAF SUNNY 74 57 56 NW7 29.97F FORT STEWART SUNNY 74 54 48 NW8 29.99S STATESBORO NOT AVBL SYLVANIA SUNNY 74 60 59 NW7 30.01S CLAXTON FAIR 72 55 56 W7 30.00F THOMSON SUNNY 68 59 72 W8 30.04S AUGUSTA-BUSH SUNNY 69 52 54 CALM 29.99F AUGUSTA-DANIEL SUNNY 70 48 45 VRB6 29.99F SWAINSBORO FAIR 72 55 56 MISG 30.02S VIDALIA SUNNY 72 55 56 N6 30.01F ALMA SUNNY 72 55 55 N6 30.01S WAYCROSS SUNNY 76 61 59 N6 30.01S JESUP FAIR 79 61 53 CALM 30.00F BRUNSWICK SUNNY 75 55 50 NE5 30.00S SAINT SIMONS SUNNY 76 58 53 NE9 29.99F $$ SCZ027-028-034-036>038-045-046-048>050-GAZ119-141-211600- ...LAKE AND SUPPLEMENTAL COASTAL OBSERVATIONS... STATION/POSITION TIME TEMP WIND PRES WAVE SWELL AIR SEA DIR/SP/G HT/PER HT/PER/DIR (UTC) (F) (DEG/KT/KT) (MB) (FT/S) (FT/S/D) UPR LAKE MARION NOT AVBL WINYAH BAY 1400 66 290/ 5 1014.0S LAKE MURRAY 1400 63 240/ 3/ 4 1014.6S ACE BASIN NERRS 1400 65 330/ 1 1015.0S FORT PULASKI 1500 71 320/ 6/ 9 1015.6S SAPELO ISLAND NOT AVBL $$ ANZ835-935-AMZ111-154-330-350-352-354-374-450-454-472-211600- ...C-MAN AND BUOY OBSERVATIONS... STATION/POSITION TIME TEMP WIND PRES WAVE SWELL AIR SEA DIR/SP/G HT/PER HT/PER/DIR (UTC) (F) (DEG/KT/KT) (MB) (FT/S) (FT/S/D) FOLLY BEACH CMAN 1400 70 310/ 4/ 6 1015.4R BUOY 41004 1500 73 79 320/ 10/ 14 1014.0F 2/ 9 2/ 9 BUOY 41008 1500 73 76 360/ 10/ 12 1015.2F 2/10 2/100/10 5E ST. MARYS GA 1400 77 N/A 2/10 FRYING PAN BUOY 1500 71 75 310/ 8/ 12 1014.7F 2/10 2/100/10 BUOY 41025 1500 70 280/ 12/ 16 1013.2F 3/ 4 2/ 80/10 CAPE LOOKOUT NC 1400 70 290/ 7/ 8 1013.7F BUOY 41002 1420 73 80 170/ 10/ 12 1015.4F 3/ 8 3/100/ 8 BUOY 41010 1500 80 80 270/ 4/ 4 1015.1R 3/ 9 2/ 60/ 9 BUOY 41012 NOT AVBL ST AUGUSTINE FL 1500 75 350/ 7/ 8 1016.0F CAPERS NEARSHORE 1400 73 330/ 8/ 8 N/A FRIPP NEARSHORE NOT AVBL $$

USA.gov is the U.S. government's official web portal to all federal, state and local government web resources and services.